| time (UTC) | temp F | wind direction | speed knots | gust knots | rain 1hr in | rain 24hr in | rain mn in | humidity % | barometer mb |
| 20260509201802 | 72 | 81 | 0.0 | 1.7 | 0.00 | 0.00 | 0.00 | 52 | 1009.2 |
| 20260509200833 | 72 | 81 | 0.9 | 1.7 | 0.00 | 0.00 | 0.00 | 50 | 1009.1 |
| 20260509200340 | 73 | 219 | 0.0 | 0.0 | 0.00 | 0.00 | 0.00 | 49 | 1009.2 |
| 20260509195807 | 73 | 225 | 0.0 | 0.0 | 0.00 | 0.00 | 0.00 | 53 | 1009.2 |
| 20260509194839 | 73 | 197 | 0.0 | 0.0 | 0.00 | 0.00 | 0.00 | 50 | 1009.4 |
| 20260509194303 | 73 | 210 | 0.0 | 0.0 | 0.00 | 0.00 | 0.00 | 54 | 1009.5 |
| 20260509193338 | 73 | 252 | 0.0 | 0.0 | 0.00 | 0.00 | 0.00 | 50 | 1009.4 |
| 20260509192809 | 74 | 227 | 0.0 | 0.0 | 0.00 | 0.00 | 0.00 | 52 | 1009.5 |
| 20260509191820 | 73 | 175 | 0.0 | 0.0 | 0.00 | 0.00 | 0.00 | 48 | 1009.6 |
| 20260509191328 | 74 | 233 | 0.0 | 0.0 | 0.00 | 0.00 | 0.00 | 49 | 1009.5 |
| 20260509190832 | 74 | 223 | 0.0 | 0.0 | 0.00 | 0.00 | 0.00 | 50 | 1009.5 |
| 20260509190321 | 74 | 286 | 0.0 | 0.0 | 0.00 | 0.00 | 0.00 | 49 | 1009.7 |
| 20260509185824 | 74 | 185 | 0.0 | 0.0 | 0.00 | 0.00 | 0.00 | 46 | 1009.7 |
| 20260509185332 | 74 | 78 | 0.0 | 0.0 | 0.00 | 0.00 | 0.00 | 51 | 1009.7 |
| 20260509184838 | 73 | 84 | 0.0 | 0.0 | 0.00 | 0.00 | 0.00 | 50 | 1010.0 |
| 20260509184305 | 74 | 313 | 0.0 | 0.0 | 0.00 | 0.00 | 0.00 | 51 | 1010.0 |
| 20260509183258 | 73 | 69 | 0.0 | 1.7 | 0.00 | 0.00 | 0.00 | 52 | 1010.1 |
| 20260509182309 | 71 | 123 | 0.0 | 6.1 | 0.00 | 0.00 | 0.00 | 51 | 1010.4 |
| 20260509181836 | 71 | 123 | 0.0 | 6.1 | 0.00 | 0.00 | 0.00 | 51 | 1010.4 |
| 20260509181322 | 71 | 196 | 0.9 | 6.1 | 0.00 | 0.00 | 0.00 | 54 | 1010.6 |
| 20260509180826 | 70 | 82 | 3.5 | 7.8 | 0.00 | 0.00 | 0.00 | 54 | 1010.4 |
| 20260509180334 | 70 | 108 | 1.7 | 7.8 | 0.00 | 0.00 | 0.00 | 55 | 1010.6 |
| 20260509175819 | 69 | 101 | 0.9 | 3.5 | 0.00 | 0.00 | 0.00 | 60 | 1010.8 |
| 20260509175325 | 68 | 346 | 0.9 | 6.1 | 0.00 | 0.00 | 0.00 | 56 | 1010.7 |
| 20260509174834 | 67 | 84 | 0.0 | 6.1 | 0.00 | 0.00 | 0.00 | 59 | 1010.8 |
| 20260509174340 | 67 | 82 | 0.0 | 5.2 | 0.00 | 0.00 | 0.00 | 59 | 1010.9 |
| 20260509173824 | 67 | 80 | 0.0 | 5.2 | 0.00 | 0.00 | 0.00 | 58 | 1011.1 |
| 20260509173332 | 67 | 55 | 0.0 | 0.9 | 0.00 | 0.00 | 0.00 | 61 | 1011.3 |
| 20260509172837 | 67 | 23 | 0.0 | 0.9 | 0.00 | 0.00 | 0.00 | 60 | 1011.4 |
| 20260509172323 | 66 | 5 | 0.0 | 3.5 | 0.00 | 0.00 | 0.00 | 59 | 1011.3 |
| 20260509171829 | 66 | 77 | 0.0 | 3.5 | 0.00 | 0.00 | 0.00 | 58 | 1011.6 |
| 20260509171252 | 66 | 25 | 1.7 | 4.3 | 0.00 | 0.00 | 0.00 | 58 | 1011.7 |
| 20260509170328 | 66 | 25 | 1.7 | 4.3 | 0.00 | 0.00 | 0.00 | 58 | 1011.7 |
| 20260509165837 | 67 | 82 | 0.0 | 4.3 | 0.00 | 0.00 | 0.00 | 57 | 1011.8 |
| 20260509165325 | 67 | 44 | 0.0 | 4.3 | 0.00 | 0.00 | 0.00 | 57 | 1011.7 |
| 20260509164829 | 67 | 22 | 1.7 | 4.3 | 0.00 | 0.00 | 0.00 | 55 | 1011.7 |
| 20260509164335 | 68 | 32 | 0.0 | 2.6 | 0.00 | 0.00 | 0.00 | 56 | 1011.5 |
| 20260509163801 | 68 | 42 | 4.3 | 10.4 | 0.00 | 0.00 | 0.00 | 54 | 1011.3 |
| 20260509162832 | 68 | 89 | 0.0 | 0.9 | 0.00 | 0.00 | 0.00 | 56 | 1011.2 |
| 20260509162340 | 68 | 15 | 0.0 | 5.2 | 0.00 | 0.00 | 0.00 | 55 | 1011.3 |
| 20260509161825 | 68 | 47 | 0.0 | 10.4 | 0.00 | 0.00 | 0.00 | 57 | 1011.4 |
| 20260509161253 | 68 | 61 | 0.0 | 5.2 | 0.00 | 0.00 | 0.00 | 59 | 1011.5 |
| 20260509160326 | 68 | 55 | 0.0 | 0.9 | 0.00 | 0.00 | 0.00 | 56 | 1011.6 |
| 20260509155830 | 67 | 31 | 0.0 | 1.7 | 0.00 | 0.00 | 0.00 | 56 | 1011.6 |
| 20260509155338 | 67 | 28 | 0.0 | 3.5 | 0.00 | 0.00 | 0.00 | 56 | 1011.7 |
| 20260509154823 | 67 | 15 | 0.0 | 3.5 | 0.00 | 0.00 | 0.00 | 60 | 1011.6 |
| 20260509154329 | 66 | 71 | 0.0 | 4.3 | 0.00 | 0.00 | 0.00 | 58 | 1011.7 |
| 20260509153753 | 65 | 36 | 3.5 | 7.0 | 0.00 | 0.00 | 0.00 | 57 | 1011.7 |
| 20260509152825 | 65 | 42 | 1.7 | 7.0 | 0.00 | 0.00 | 0.00 | 55 | 1011.7 |
| 20260509152332 | 65 | 44 | 2.6 | 6.1 | 0.00 | 0.00 | 0.00 | 58 | 1011.7 |
| 20260509151821 | 65 | 17 | 0.0 | 4.3 | 0.00 | 0.00 | 0.00 | 59 | 1011.8 |
| 20260509151307 | 64 | 71 | 0.0 | 4.3 | 0.00 | 0.00 | 0.00 | 60 | 1011.8 |
| 20260509150833 | 64 | 71 | 0.0 | 4.3 | 0.00 | 0.00 | 0.00 | 60 | 1011.8 |
| 20260509150257 | 63 | 71 | 0.9 | 3.5 | 0.00 | 0.00 | 0.00 | 61 | 1011.9 |
| 20260509145310 | 63 | 86 | 0.0 | 1.7 | 0.00 | 0.00 | 0.00 | 63 | 1012.0 |
| 20260509144325 | 62 | 297 | 0.0 | 0.9 | 0.00 | 0.00 | 0.00 | 66 | 1012.1 |
| 20260509143829 | 62 | 227 | 0.0 | 0.0 | 0.00 | 0.00 | 0.00 | 68 | 1012.1 |
| 20260509143320 | 61 | 269 | 0.0 | 0.0 | 0.00 | 0.00 | 0.00 | 65 | 1012.1 |
| 20260509142824 | 61 | 268 | 0.0 | 0.0 | 0.00 | 0.00 | 0.00 | 67 | 1012.1 |
| 20260509142331 | 61 | 268 | 0.0 | 3.5 | 0.00 | 0.00 | 0.00 | 67 | 1012.2 |
| 20260509141835 | 61 | 219 | 0.0 | 3.5 | 0.00 | 0.00 | 0.00 | 68 | 1012.3 |
| 20260509141327 | 61 | 221 | 0.0 | 2.6 | 0.00 | 0.00 | 0.00 | 67 | 1012.3 |
| 20260509140826 | 60 | 217 | 0.0 | 2.6 | 0.00 | 0.00 | 0.00 | 68 | 1012.2 |
| 20260509140334 | 60 | 335 | 0.9 | 1.7 | 0.00 | 0.00 | 0.00 | 67 | 1011.9 |
| 20260509135839 | 60 | 76 | 0.0 | 0.9 | 0.00 | 0.00 | 0.00 | 66 | 1011.8 |
| 20260509135324 | 60 | 76 | 0.0 | 0.9 | 0.00 | 0.00 | 0.00 | 67 | 1011.8 |
| 20260509134754 | 60 | 76 | 0.0 | 0.9 | 0.00 | 0.00 | 0.00 | 66 | 1011.8 |
| 20260509133824 | 60 | 76 | 0.0 | 0.9 | 0.00 | 0.00 | 0.00 | 67 | 1011.8 |
| 20260509133332 | 60 | 76 | 0.0 | 1.7 | 0.00 | 0.00 | 0.00 | 67 | 1011.8 |
| 20260509132836 | 60 | 76 | 0.0 | 2.6 | 0.00 | 0.00 | 0.00 | 71 | 1011.7 |
| 20260509132323 | 59 | 5 | 0.9 | 1.7 | 0.00 | 0.00 | 0.00 | 70 | 1011.8 |
| 20260509131828 | 59 | 345 | 0.0 | 0.9 | 0.00 | 0.00 | 0.00 | 70 | 1012.0 |
| 20260509131255 | 58 | 345 | 0.0 | 1.7 | 0.00 | 0.00 | 0.00 | 69 | 1011.9 |
| 20260509130307 | 58 | 346 | 1.7 | 1.7 | 0.00 | 0.00 | 0.00 | 70 | 1012.0 |
| 20260509125325 | 58 | 346 | 0.0 | 0.9 | 0.00 | 0.00 | 0.00 | 72 | 1011.9 |
| 20260509124828 | 57 | 345 | 0.0 | 1.7 | 0.00 | 0.00 | 0.00 | 72 | 1011.9 |
| 20260509124334 | 57 | 345 | 0.0 | 1.7 | 0.00 | 0.00 | 0.00 | 73 | 1011.8 |
| 20260509123839 | 57 | 345 | 0.0 | 1.7 | 0.00 | 0.00 | 0.00 | 76 | 1011.8 |
| 20260509123327 | 56 | 345 | 0.0 | 3.5 | 0.00 | 0.00 | 0.00 | 74 | 1011.7 |
| 20260509122831 | 56 | 345 | 0.9 | 3.5 | 0.00 | 0.00 | 0.00 | 74 | 1011.8 |
| 20260509122338 | 56 | 94 | 1.7 | 2.6 | 0.00 | 0.00 | 0.00 | 73 | 1011.9 |
| 20260509121822 | 56 | 15 | 0.9 | 1.7 | 0.00 | 0.00 | 0.00 | 74 | 1012.0 |
| 20260509121330 | 56 | 15 | 0.0 | 2.6 | 0.00 | 0.00 | 0.00 | 74 | 1011.9 |
| 20260509120759 | 56 | 15 | 1.7 | 2.6 | 0.00 | 0.00 | 0.00 | 77 | 1012.0 |
| 20260509115830 | 55 | 15 | 0.0 | 0.0 | 0.00 | 0.00 | 0.00 | 76 | 1011.9 |
| 20260509115338 | 55 | 15 | 0.0 | 1.7 | 0.00 | 0.00 | 0.00 | 76 | 1011.8 |
| 20260509114821 | 55 | 15 | 0.9 | 1.7 | 0.00 | 0.00 | 0.00 | 77 | 1011.9 |
| 20260509114548 | 55 | 15 | 0.0 | 0.0 | 0.00 | 0.00 | 0.00 | 76 | 1011.9 |
| 20260509113826 | 54 | 15 | 0.0 | 0.0 | 0.00 | 0.00 | 0.00 | 76 | 1011.8 |
| 20260509113334 | 54 | 15 | 0.0 | 1.7 | 0.00 | 0.00 | 0.00 | 76 | 1011.7 |
| 20260509112838 | 54 | 15 | 0.0 | 3.5 | 0.00 | 0.00 | 0.00 | 76 | 1011.6 |
| 20260509112324 | 54 | 15 | 1.7 | 3.5 | 0.00 | 0.00 | 0.00 | 77 | 1011.7 |
| 20260509111830 | 54 | 14 | 0.9 | 1.7 | 0.00 | 0.00 | 0.00 | 78 | 1011.7 |
| 20260509111259 | 54 | 360 | 0.0 | 0.9 | 0.00 | 0.00 | 0.00 | 76 | 1011.5 |
| 20260509110333 | 54 | 360 | 0.0 | 0.9 | 0.00 | 0.00 | 0.00 | 76 | 1011.6 |
| 20260509105837 | 54 | 355 | 0.0 | 0.0 | 0.00 | 0.00 | 0.00 | 77 | 1011.5 |
| 20260509105325 | 54 | 319 | 0.0 | 0.0 | 0.00 | 0.00 | 0.00 | 74 | 1011.6 |
| 20260509104829 | 54 | 287 | 0.0 | 0.0 | 0.00 | 0.00 | 0.00 | 74 | 1011.4 |
| 20260509104336 | 54 | 287 | 0.0 | 0.0 | 0.00 | 0.00 | 0.00 | 74 | 1011.3 |
| 20260509103820 | 54 | 287 | 0.0 | 0.0 | 0.00 | 0.00 | 0.00 | 74 | 1011.3 |
| 20260509103326 | 54 | 287 | 0.0 | 0.0 | 0.00 | 0.00 | 0.00 | 73 | 1011.2 |
| 20260509102830 | 54 | 287 | 0.0 | 1.7 | 0.00 | 0.00 | 0.00 | 72 | 1011.3 |
| 20260509102337 | 54 | 287 | 0.0 | 1.7 | 0.00 | 0.00 | 0.00 | 70 | 1011.3 |
| 20260509101827 | 54 | 236 | 0.0 | 0.9 | 0.00 | 0.00 | 0.00 | 69 | 1011.3 |
| 20260509101333 | 54 | 236 | 0.0 | 0.9 | 0.00 | 0.00 | 0.00 | 68 | 1011.3 |
| 20260509100839 | 54 | 236 | 0.0 | 0.9 | 0.00 | 0.00 | 0.00 | 69 | 1011.3 |
| 20260509100327 | 54 | 236 | 0.0 | 1.7 | 0.00 | 0.00 | 0.00 | 68 | 1011.3 |
| 20260509095831 | 54 | 236 | 0.0 | 1.7 | 0.00 | 0.00 | 0.00 | 68 | 1011.2 |
| 20260509095337 | 54 | 236 | 0.9 | 1.7 | 0.00 | 0.00 | 0.00 | 68 | 1011.1 |
| 20260509094822 | 55 | 236 | 0.0 | 0.0 | 0.00 | 0.00 | 0.00 | 67 | 1011.1 |
| 20260509094306 | 55 | 236 | 0.0 | 0.0 | 0.00 | 0.00 | 0.00 | 67 | 1011.2 |
| 20260509093339 | 55 | 236 | 0.0 | 0.0 | 0.00 | 0.00 | 0.00 | 66 | 1011.2 |
| 20260509092828 | 55 | 236 | 0.0 | 0.0 | 0.00 | 0.00 | 0.00 | 67 | 1011.2 |
| 20260509092336 | 55 | 236 | 0.0 | 0.9 | 0.00 | 0.00 | 0.00 | 66 | 1011.2 |
| 20260509091802 | 55 | 236 | 0.0 | 1.7 | 0.00 | 0.00 | 0.00 | 65 | 1011.2 |
| 20260509090834 | 55 | 236 | 0.0 | 2.6 | 0.00 | 0.00 | 0.00 | 66 | 1011.2 |
| 20260509090341 | 55 | 236 | 0.9 | 2.6 | 0.00 | 0.00 | 0.00 | 65 | 1011.2 |
| 20260509085824 | 55 | 227 | 0.0 | 0.0 | 0.00 | 0.00 | 0.00 | 64 | 1011.2 |
| 20260509085330 | 55 | 227 | 0.0 | 0.0 | 0.00 | 0.00 | 0.00 | 65 | 1011.2 |
| 20260509084834 | 55 | 227 | 0.0 | 0.0 | 0.00 | 0.00 | 0.00 | 65 | 1011.3 |
| 20260509084321 | 55 | 227 | 0.0 | 0.0 | 0.00 | 0.00 | 0.00 | 66 | 1011.2 |
| 20260509083810 | 56 | 227 | 0.0 | 0.9 | 0.00 | 0.00 | 0.00 | 66 | 1011.4 |
| 20260509083337 | 56 | 227 | 0.0 | 0.9 | 0.00 | 0.00 | 0.00 | 66 | 1011.4 |
| 20260509082820 | 56 | 227 | 0.0 | 2.6 | 0.00 | 0.00 | 0.00 | 64 | 1011.5 |
| 20260509082326 | 56 | 228 | 0.0 | 2.6 | 0.00 | 0.00 | 0.00 | 63 | 1011.6 |
| 20260509081812 | 56 | 217 | 0.0 | 0.0 | 0.00 | 0.00 | 0.00 | 63 | 1011.6 |
| 20260509080822 | 56 | 217 | 0.0 | 0.0 | 0.00 | 0.00 | 0.00 | 63 | 1011.5 |
| 20260509080329 | 56 | 178 | 0.0 | 0.0 | 0.00 | 0.00 | 0.00 | 63 | 1011.4 |
| 20260509075833 | 55 | 220 | 0.0 | 2.6 | 0.00 | 0.00 | 0.00 | 63 | 1011.4 |
| 20260509075340 | 55 | 220 | 0.9 | 4.3 | 0.00 | 0.00 | 0.00 | 64 | 1011.5 |
| 20260509074828 | 55 | 204 | 1.7 | 4.3 | 0.00 | 0.00 | 0.00 | 64 | 1011.4 |
| 20260509074335 | 55 | 235 | 1.7 | 3.5 | 0.00 | 0.00 | 0.00 | 64 | 1011.5 |
| 20260509073840 | 55 | 238 | 0.9 | 3.5 | 0.00 | 0.00 | 0.00 | 65 | 1011.4 |
| 20260509073304 | 55 | 225 | 0.0 | 0.0 | 0.00 | 0.00 | 0.00 | 65 | 1011.6 |
| 20260509072831 | 55 | 225 | 0.0 | 0.0 | 0.00 | 0.00 | 0.00 | 65 | 1011.6 |
| 20260509072338 | 55 | 225 | 0.0 | 1.7 | 0.00 | 0.00 | 0.00 | 65 | 1011.5 |
| 20260509071822 | 55 | 225 | 0.0 | 1.7 | 0.00 | 0.00 | 0.00 | 66 | 1011.5 |
| 20260509071307 | 55 | 225 | 0.0 | 0.0 | 0.00 | 0.00 | 0.00 | 66 | 1011.6 |
| 20260509070341 | 55 | 225 | 0.0 | 0.0 | 0.00 | 0.00 | 0.00 | 67 | 1011.7 |
| 20260509065830 | 55 | 225 | 0.0 | 0.0 | 0.00 | 0.00 | 0.00 | 66 | 1011.7 |
| 20260509065337 | 55 | 225 | 0.0 | 0.0 | 0.00 | 0.00 | 0.00 | 66 | 1011.6 |
| 20260509064821 | 55 | 225 | 0.0 | 0.0 | 0.00 | 0.00 | 0.00 | 68 | 1011.7 |
| 20260509064328 | 55 | 225 | 0.0 | 0.0 | 0.00 | 0.00 | 0.00 | 68 | 1011.7 |
| 20260509063835 | 55 | 225 | 0.0 | 0.0 | 0.00 | 0.00 | 0.00 | 66 | 1011.7 |
| 20260509063301 | 55 | 225 | 0.0 | 1.7 | 0.00 | 0.00 | 0.00 | 66 | 1011.8 |
| 20260509062255 | 55 | 229 | 0.0 | 4.3 | 0.00 | 0.00 | 0.00 | 66 | 1011.9 |
| 20260509061822 | 55 | 229 | 0.0 | 4.3 | 0.00 | 0.00 | 0.00 | 66 | 1011.9 |
| 20260509061310 | 55 | 212 | 1.7 | 5.2 | 0.00 | 0.00 | 0.00 | 65 | 1011.9 |
| 20260509060325 | 55 | 208 | 1.7 | 4.3 | 0.00 | 0.00 | 0.00 | 65 | 1012.0 |
| 20260509055829 | 55 | 227 | 0.9 | 5.2 | 0.00 | 0.00 | 0.00 | 65 | 1011.9 |
| 20260509055335 | 55 | 212 | 0.9 | 5.2 | 0.00 | 0.00 | 0.00 | 67 | 1011.9 |
| 20260509054819 | 54 | 221 | 2.6 | 4.3 | 0.00 | 0.00 | 0.00 | 66 | 1012.0 |
| 20260509054326 | 54 | 212 | 0.0 | 3.5 | 0.00 | 0.00 | 0.00 | 67 | 1012.0 |
| 20260509053811 | 54 | 225 | 0.9 | 1.7 | 0.00 | 0.00 | 0.00 | 68 | 1012.1 |
| 20260509052822 | 53 | 225 | 0.0 | 1.7 | 0.00 | 0.00 | 0.00 | 69 | 1012.1 |
| 20260509052330 | 53 | 225 | 0.0 | 1.7 | 0.00 | 0.00 | 0.00 | 70 | 1012.2 |
| 20260509051838 | 53 | 225 | 0.0 | 1.7 | 0.00 | 0.00 | 0.00 | 71 | 1012.1 |
| 20260509051324 | 53 | 225 | 0.0 | 1.7 | 0.00 | 0.00 | 0.00 | 73 | 1012.1 |
| 20260509050830 | 54 | 225 | 0.0 | 1.7 | 0.00 | 0.00 | 0.00 | 72 | 1012.1 |
| 20260509050255 | 54 | 225 | 0.0 | 0.0 | 0.00 | 0.00 | 0.00 | 71 | 1012.1 |
| 20260509045329 | 54 | 225 | 0.0 | 0.0 | 0.00 | 0.00 | 0.00 | 69 | 1012.3 |
| 20260509044834 | 54 | 225 | 0.0 | 0.0 | 0.00 | 0.00 | 0.00 | 66 | 1012.3 |
| 20260509044340 | 54 | 225 | 0.0 | 0.0 | 0.00 | 0.00 | 0.00 | 64 | 1012.3 |
| 20260509043805 | 54 | 225 | 0.0 | 0.0 | 0.00 | 0.00 | 0.00 | 63 | 1012.2 |
| 20260509042823 | 55 | 225 | 0.0 | 0.0 | 0.00 | 0.00 | 0.00 | 63 | 1012.3 |
| 20260509042307 | 55 | 225 | 0.0 | 0.0 | 0.00 | 0.00 | 0.00 | 63 | 1012.3 |
| 20260509041321 | 55 | 219 | 0.0 | 0.0 | 0.00 | 0.00 | 0.00 | 62 | 1012.2 |
| 20260509040825 | 55 | 219 | 0.0 | 0.0 | 0.00 | 0.00 | 0.00 | 62 | 1012.2 |
| 20260509040331 | 56 | 219 | 0.0 | 0.0 | 0.00 | 0.00 | 0.00 | 61 | 1012.4 |
| 20260509035755 | 56 | 219 | 0.0 | 0.0 | 0.00 | 0.00 | 0.00 | 61 | 1012.4 |
| 20260509034828 | 56 | 219 | 0.0 | 0.0 | 0.00 | 0.00 | 0.00 | 60 | 1012.5 |
| 20260509034333 | 56 | 219 | 0.0 | 0.0 | 0.00 | 0.00 | 0.00 | 60 | 1012.3 |
| 20260509033821 | 56 | 219 | 0.0 | 0.0 | 0.00 | 0.00 | 0.00 | 61 | 1012.4 |
| 20260509033328 | 56 | 219 | 0.0 | 1.7 | 0.00 | 0.00 | 0.00 | 61 | 1012.4 |
| 20260509032831 | 56 | 219 | 0.0 | 1.7 | 0.00 | 0.00 | 0.00 | 61 | 1012.3 |
| 20260509032337 | 56 | 221 | 0.0 | 0.0 | 0.00 | 0.00 | 0.00 | 60 | 1012.3 |
| 20260509031821 | 56 | 82 | 0.0 | 0.0 | 0.00 | 0.00 | 0.00 | 60 | 1012.4 |
| 20260509031330 | 57 | 82 | 0.0 | 0.0 | 0.00 | 0.00 | 0.00 | 59 | 1012.4 |
| 20260509030834 | 57 | 82 | 0.0 | 0.0 | 0.00 | 0.00 | 0.00 | 58 | 1012.5 |
| 20260509030300 | 57 | 82 | 0.0 | 0.0 | 0.00 | 0.00 | 0.00 | 57 | 1012.5 |
| 20260509025256 | 57 | 82 | 0.0 | 0.0 | 0.00 | 0.00 | 0.00 | 56 | 1012.6 |
| 20260509024330 | 58 | 82 | 0.0 | 0.0 | 0.00 | 0.00 | 0.00 | 56 | 1012.6 |
| 20260509023756 | 58 | 82 | 0.0 | 0.0 | 0.00 | 0.00 | 0.00 | 56 | 1012.8 |
| 20260509022827 | 58 | 82 | 0.0 | 0.0 | 0.00 | 0.00 | 0.00 | 55 | 1012.6 |
| 20260509022334 | 58 | 82 | 0.0 | 0.0 | 0.00 | 0.00 | 0.00 | 55 | 1012.7 |
| 20260509021821 | 59 | 82 | 0.0 | 0.0 | 0.00 | 0.00 | 0.00 | 56 | 1012.6 |
| 20260509021308 | 59 | 82 | 0.0 | 0.0 | 0.00 | 0.00 | 0.00 | 56 | 1012.5 |
| 20260509020304 | 59 | 82 | 0.0 | 0.0 | 0.00 | 0.00 | 0.00 | 52 | 1012.6 |
| 20260509015255 | 59 | 82 | 0.0 | 0.0 | 0.00 | 0.00 | 0.00 | 52 | 1012.6 |
| 20260509014329 | 60 | 82 | 0.0 | 0.0 | 0.00 | 0.00 | 0.00 | 51 | 1012.6 |
| 20260509013834 | 60 | 82 | 0.0 | 0.0 | 0.00 | 0.00 | 0.00 | 52 | 1012.7 |
| 20260509013341 | 60 | 82 | 0.0 | 0.0 | 0.00 | 0.00 | 0.00 | 53 | 1012.6 |
| 20260509012825 | 60 | 82 | 0.0 | 0.0 | 0.00 | 0.00 | 0.00 | 52 | 1012.6 |
| 20260509012333 | 61 | 82 | 0.0 | 0.0 | 0.00 | 0.00 | 0.00 | 50 | 1012.6 |
| 20260509011801 | 61 | 82 | 0.0 | 0.0 | 0.00 | 0.00 | 0.00 | 53 | 1012.5 |
| 20260509010755 | 62 | 82 | 0.0 | 0.0 | 0.00 | 0.00 | 0.00 | 50 | 1012.5 |
| 20260509005828 | 62 | 82 | 0.0 | 0.0 | 0.00 | 0.00 | 0.00 | 48 | 1012.5 |
| 20260509005335 | 62 | 82 | 0.0 | 0.0 | 0.00 | 0.00 | 0.00 | 48 | 1012.5 |
| 20260509004800 | 62 | 82 | 0.0 | 0.0 | 0.00 | 0.00 | 0.00 | 49 | 1012.3 |
| 20260509003832 | 63 | 82 | 0.0 | 0.0 | 0.00 | 0.00 | 0.00 | 51 | 1012.3 |
| 20260509003340 | 63 | 82 | 0.0 | 2.6 | 0.00 | 0.00 | 0.00 | 49 | 1012.3 |
| 20260509002824 | 63 | 82 | 0.0 | 2.6 | 0.00 | 0.00 | 0.00 | 46 | 1012.2 |
| 20260509002334 | 64 | 82 | 0.0 | 0.0 | 0.00 | 0.00 | 0.00 | 46 | 1012.2 |
| 20260509001840 | 64 | 82 | 0.0 | 0.0 | 0.00 | 0.00 | 0.00 | 45 | 1012.2 |
| 20260509001304 | 64 | 82 | 0.0 | 0.0 | 0.00 | 0.00 | 0.00 | 43 | 1012.2 |
| 20260509000340 | 65 | 82 | 0.0 | 0.0 | 0.00 | 0.00 | 0.00 | 44 | 1012.2 |
| 20260508235822 | 65 | 82 | 0.0 | 0.0 | 0.00 | 0.00 | 0.00 | 44 | 1012.1 |
| 20260508235328 | 65 | 82 | 0.0 | 0.0 | 0.00 | 0.00 | 0.00 | 44 | 1012.1 |
| 20260508234832 | 65 | 82 | 0.0 | 0.0 | 0.00 | 0.00 | 0.00 | 41 | 1012.1 |
| 20260508234338 | 65 | 82 | 0.0 | 0.0 | 0.00 | 0.00 | 0.00 | 41 | 1012.1 |
| 20260508233821 | 66 | 82 | 0.0 | 0.0 | 0.00 | 0.00 | 0.00 | 42 | 1012.1 |
| 20260508233333 | 66 | 82 | 0.0 | 0.0 | 0.00 | 0.00 | 0.00 | 42 | 1012.0 |
| 20260508232837 | 66 | 360 | 0.0 | 0.0 | 0.00 | 0.00 | 0.00 | 41 | 1012.0 |
| 20260508232325 | 66 | 360 | 0.0 | 0.0 | 0.00 | 0.00 | 0.00 | 41 | 1011.9 |
| 20260508231829 | 66 | 360 | 0.0 | 0.0 | 0.00 | 0.00 | 0.00 | 41 | 1011.9 |
| 20260508231336 | 67 | 360 | 0.0 | 0.0 | 0.00 | 0.00 | 0.00 | 41 | 1011.9 |
| 20260508230820 | 67 | 360 | 0.0 | 0.0 | 0.00 | 0.00 | 0.00 | 40 | 1011.9 |
| 20260508230326 | 68 | 360 | 0.0 | 0.0 | 0.00 | 0.00 | 0.00 | 42 | 1011.8 |
| 20260508225830 | 68 | 360 | 0.0 | 0.0 | 0.00 | 0.00 | 0.00 | 42 | 1011.8 |
| 20260508225337 | 68 | 360 | 0.0 | 0.0 | 0.00 | 0.00 | 0.00 | 40 | 1011.8 |
| 20260508224820 | 68 | 360 | 0.0 | 1.7 | 0.00 | 0.00 | 0.00 | 38 | 1011.8 |
| 20260508224333 | 68 | 360 | 0.0 | 3.5 | 0.00 | 0.00 | 0.00 | 38 | 1011.9 |
| 20260508223836 | 69 | 360 | 0.0 | 2.6 | 0.00 | 0.00 | 0.00 | 39 | 1011.9 |
| 20260508223322 | 69 | 14 | 0.0 | 4.3 | 0.00 | 0.00 | 0.00 | 39 | 1011.7 |
| 20260508222826 | 69 | 10 | 1.7 | 4.3 | 0.00 | 0.00 | 0.00 | 39 | 1011.7 |
| 20260508222334 | 69 | 9 | 0.0 | 2.6 | 0.00 | 0.00 | 0.00 | 41 | 1011.7 |
| 20260508221841 | 69 | 10 | 0.0 | 2.6 | 0.00 | 0.00 | 0.00 | 40 | 1011.7 |
| 20260508221305 | 69 | 360 | 0.0 | 0.0 | 0.00 | 0.00 | 0.00 | 39 | 1011.7 |
| 20260508220338 | 69 | 316 | 0.0 | 0.9 | 0.00 | 0.00 | 0.00 | 39 | 1011.8 |
| 20260508215823 | 69 | 317 | 0.0 | 0.9 | 0.00 | 0.00 | 0.00 | 36 | 1011.8 |
| 20260508215310 | 69 | 310 | 0.0 | 4.3 | 0.00 | 0.00 | 0.00 | 35 | 1011.9 |
| 20260508214324 | 69 | 294 | 0.9 | 4.3 | 0.00 | 0.00 | 0.00 | 34 | 1011.9 |
| 20260508213828 | 69 | 317 | 0.0 | 7.8 | 0.00 | 0.00 | 0.00 | 34 | 1011.9 |
| 20260508213337 | 70 | 306 | 3.5 | 11.3 | 0.00 | 0.00 | 0.00 | 34 | 1011.9 |
| 20260508212840 | 71 | 319 | 6.1 | 12.2 | 0.00 | 0.00 | 0.00 | 34 | 1011.9 |
| 20260508212326 | 72 | 311 | 6.1 | 12.2 | 0.00 | 0.00 | 0.00 | 33 | 1011.9 |
| 20260508211813 | 70 | 311 | 7.8 | 11.3 | 0.00 | 0.00 | 0.00 | 36 | 1011.8 |
| 20260508210823 | 69 | 284 | 7.0 | 13.0 | 0.00 | 0.00 | 0.00 | 36 | 1011.7 |
| 20260508210335 | 69 | 303 | 7.8 | 13.0 | 0.00 | 0.00 | 0.00 | 36 | 1011.8 |
| 20260508205840 | 68 | 272 | 3.5 | 8.7 | 0.00 | 0.00 | 0.00 | 37 | 1011.8 |
| 20260508205306 | 69 | 253 | 7.0 | 11.3 | 0.00 | 0.00 | 0.00 | 35 | 1011.9 |
| 20260508204339 | 69 | 249 | 5.2 | 12.2 | 0.00 | 0.00 | 0.00 | 35 | 1011.9 |
| 20260508203823 | 70 | 285 | 7.8 | 12.2 | 0.00 | 0.00 | 0.00 | 35 | 1011.9 |
| 20260508203329 | 70 | 277 | 6.1 | 11.3 | 0.00 | 0.00 | 0.00 | 32 | 1011.9 |
| 20260508202834 | 71 | 263 | 5.2 | 13.0 | 0.00 | 0.00 | 0.00 | 32 | 1012.0 |
| 20260508202321 | 72 | 292 | 7.0 | 14.8 | 0.00 | 0.00 | 0.00 | 32 | 1012.0 |